PST,Max TemperatureF,Mean TemperatureF,Min TemperatureF,Max Dew PointF,MeanDew PointF,Min DewpointF,Max Humidity, Mean Humidity, Min Humidity, Max Sea Level PressureIn, Mean Sea Level PressureIn, Min Sea Level PressureIn, Max VisibilityMiles, Mean VisibilityMiles, Min VisibilityMiles, Max Wind SpeedMPH, Mean Wind SpeedMPH, Max Gust SpeedMPH,PrecipitationIn, CloudCover, Events, WindDirDegrees
2010-11-1,55,54,52,55,54,49,100,96,86,30.33,30.01,29.81,10,6,1,25,11,41,2.19,8,Rain,189
2010-11-2,63,55,46,52,48,42,100,85,56,30.58,30.44,30.30,10,8,5,16,6,21,0.00,2,,80
2010-11-3,67,58,49,50,45,40,96,69,45,30.28,30.12,30.06,10,9,2,17,8,22,0.00,2,,71
2010-11-4,57,52,46,54,50,45,100,93,81,30.09,30.04,29.96,10,5,0,10,3,18,0.17,8,Fog-Rain,123
2010-11-5,52,46,39,52,45,38,100,92,80,29.96,29.90,29.87,10,6,0,12,2,17,0.03,7,Fog-Rain,50
2010-11-6,53,45,37,52,45,36,100,94,88,29.87,29.67,29.51,10,5,0,23,6,37,0.74,7,Fog-Rain,136
2010-11-7,53,47,41,50,44,39,100,94,82,29.98,29.83,29.65,10,6,0,12,3,16,0.22,6,Fog-Rain,115
2010-11-8,48,43,37,43,40,36,97,91,82,30.08,30.04,29.96,10,7,1,8,3,12,0.29,6,Rain,78
2010-11-9,49,44,38,43,41,38,93,88,74,29.94,29.72,29.58,10,10,4,17,6,32,0.35,8,Rain,120
2010-11-10,52,44,35,43,39,34,100,90,66,30.29,30.17,29.90,10,6,0,9,3,10,0.00,2,Fog,80
2010-11-11,50,44,38,47,42,37,100,92,80,30.49,30.27,30.16,10,6,1,16,5,25,0.55,6,Rain,139
2010-11-12,53,45,36,45,40,36,100,89,71,30.67,30.60,30.49,10,8,1,8,4,13,T,3,Rain,113
2010-11-13,50,48,45,49,46,42,100,92,86,30.53,30.38,30.29,10,5,2,13,4,20,0.31,8,Rain,130
2010-11-14,54,52,50,52,50,48,100,94,88,30.33,30.30,30.27,10,3,1,9,3,13,0.30,8,Rain,259
2010-11-15,54,51,48,54,49,43,100,94,76,30.31,30.13,29.91,10,3,0,28,10,45,0.83,8,Fog-Rain,225
2010-11-16,52,48,44,46,42,38,90,78,62,30.17,30.06,29.94,10,10,8,23,8,35,0.03,7,Rain,282
2010-11-17,51,44,36,48,42,35,100,91,73,29.95,29.71,29.61,10,5,1,33,8,44,1.70,8,Rain,183
2010-11-18,46,40,34,40,36,33,96,90,80,29.86,29.79,29.68,10,8,2,14,4,17,0.42,6,Rain,119
2010-11-19,45,40,35,40,36,33,96,89,76,29.84,29.65,29.54,10,10,5,12,5,16,0.11,7,Rain,67
2010-11-20,40,36,32,36,30,24,93,79,65,29.79,29.70,29.56,10,10,10,18,9,26,T,5,Rain,51
2010-11-21,34,31,27,32,28,21,93,83,72,29.82,29.69,29.63,10,5,0,16,6,23,0.18,6,Fog-Snow,57
2010-11-22,32,27,22,28,21,9,93,81,58,29.89,29.68,29.55,10,5,1,29,9,45,0.05,6,Snow,54
2010-11-23,29,24,19,17,13,8,78,64,47,30.21,30.12,29.92,10,10,10,16,7,23,0.00,2,,52
2010-11-24,34,29,24,29,24,18,89,80,73,30.29,30.26,30.20,10,10,7,8,4,10,T,8,,80
2010-11-25,44,39,33,40,38,30,100,89,81,30.27,30.07,29.83,10,6,1,20,8,31,0.36,8,Rain,145
2010-11-26,45,41,37,43,40,36,100,93,87,29.87,29.80,29.73,10,6,1,28,5,46,0.92,7,Rain,171
2010-11-27,45,39,32,38,37,37,100,96,93,29.91,29.79,29.73,10,9,3,7,3,16,0.25,6,Rain,95
2010-11-28,46,38,29,40,36,32,97,90,76,30.25,30.07,29.93,10,9,2,9,4,12,0.01,4,,88
2010-11-29,46,40,34,43,40,33,100,92,85,30.26,30.13,29.94,10,8,4,26,12,46,0.64,8,Rain,136
2010-11-30,48,44,40,48,45,39,100,98,93,30.06,29.92,29.85,10,4,0,23,7,41,1.69,8,Fog-Rain,187